WetterOnline ( http://www.wetteronline.de )

Wetter aktuell Gelsenkirchen

Aktuelles Wetter: Essen (161m)

6-stündlich | Neueste Meldungen
Ortszeit Temperatur Wetter
Do, 19.07. 8:00 18.3° C bedeckt
Do, 19.07. 2:00 17.8° C fast wolkenlos
Mi, 18.07. 20:00 24.0° C wolkenlos
Mi, 18.07. 14:00 23.9° C leicht bewölkt
Mi, 18.07. 8:00 17.5° C wolkenlos
Mi, 18.07. 2:00 16.6° C wolkenlos
Di, 17.07. 20:00 24.9° C wolkig
Di, 17.07. 14:00 27.0° C wolkenlos
Ortszeit Temperatur Wetter
Do, 19.07. 13:30 25.6° C wolkenlos
Do, 19.07. 13:20 25.6° C wolkenlos
Do, 19.07. 13:10 25.7° C wolkenlos
Do, 19.07. 13:00 25.0° C wolkig
Do, 19.07. 12:50 25.0° C wolkig
Do, 19.07. 12:40 25.2° C bewölkt
Do, 19.07. 12:30 25.1° C wolkig
Do, 19.07. 12:00 23.9° C wolkenlos
Do, 19.07. 11:30 23.7° C wolkig
Do, 19.07. 11:00 22.8° C bedeckt
Do, 19.07. 10:30 21.6° C bedeckt
Ortszeit Relative Feuchte Sichtweite
Do, 19.07. 8:00 71% 40 km
Do, 19.07. 2:00 63% 50 km
Mi, 18.07. 20:00 39% 50 km
Mi, 18.07. 14:00 39% 40 km
Mi, 18.07. 8:00 73% 30 km
Mi, 18.07. 2:00 70% 55 km
Di, 17.07. 20:00 46% 55 km
Di, 17.07. 14:00 37% 60 km
Ortszeit Relative Feuchte Sichtweite
Do, 19.07. 13:30 35% -
Do, 19.07. 13:20 35% -
Do, 19.07. 13:10 39% -
Do, 19.07. 13:00 40% 35 km
Do, 19.07. 12:50 40% -
Do, 19.07. 12:40 40% -
Do, 19.07. 12:30 41% 50 km
Do, 19.07. 12:00 43% 65 km
Do, 19.07. 11:30 48% 50 km
Do, 19.07. 11:00 51% 50 km
Do, 19.07. 10:30 55% 50 km
Ortszeit Niederschlagsmenge Niederschlagsart
Do, 19.07. 8:00 0.0 l/m2 in 12 Std. -
Do, 19.07. 2:00 0.0 l/m2 in 6 Std. -
Mi, 18.07. 20:00 0.0 l/m2 in 12 Std. -
Mi, 18.07. 14:00 0.0 l/m2 in 6 Std. -
Mi, 18.07. 8:00 0.0 l/m2 in 12 Std. -
Mi, 18.07. 2:00 0.0 l/m2 in 6 Std. -
Di, 17.07. 20:00 0.0 l/m2 in 12 Std. -
Di, 17.07. 14:00 0.0 l/m2 in 6 Std. -
Ortszeit Niederschlagsmenge Niederschlagsart
Do, 19.07. 13:30 0.0 l/m2 in 1 Std. -
Do, 19.07. 13:20 keine Meldung -
Do, 19.07. 13:10 keine Meldung -
Do, 19.07. 13:00 0.0 l/m2 in 1 Std. -
Do, 19.07. 12:50 keine Meldung -
Do, 19.07. 12:40 keine Meldung -
Do, 19.07. 12:30 0.0 l/m2 in 1 Std. -
Do, 19.07. 12:00 0.0 l/m2 in 1 Std. -
Do, 19.07. 11:30 0.0 l/m2 in 1 Std. -
Do, 19.07. 11:00 0.0 l/m2 in 1 Std. -
Do, 19.07. 10:30 0.0 l/m2 in 1 Std. -
Ortszeit Stärke Spitze Richtung
km/h Bft. km/h Grad Sektor
Do, 19.07. 8:00 4 1 14 130° SO
Do, 19.07. 2:00 7 2 14 100° O
Mi, 18.07. 20:00 6 1 20 10° N
Mi, 18.07. 14:00 7 2 18 260° W
Mi, 18.07. 8:00 4 1 11 160° S
Mi, 18.07. 2:00 7 2 36 340° N
Di, 17.07. 20:00 7 2 40 290° W
Di, 17.07. 14:00 14 3 32 250° W
Ortszeit Stärke Spitze Richtung
km/h Bft. km/h Grad Sektor
Do, 19.07. 13:30 4 1 18 340° N
Do, 19.07. 13:20 4 1 - 340° N
Do, 19.07. 13:10 7 2 - 120° SO
Do, 19.07. 13:00 6 1 15 160° S
Do, 19.07. 12:50 6 1 - 160° S
Do, 19.07. 12:40 7 2 - 90° O
Do, 19.07. 12:30 7 2 14 140° SO
Do, 19.07. 12:00 7 2 14 110° O
Do, 19.07. 11:30 4 1 14 220° SW
Do, 19.07. 11:00 4 1 7 180° S
Do, 19.07. 10:30 4 1 7 110° O
Ortszeit Untergrenze Bedeckung Gattung
total tief tief mittel hoch
Do, 19.07. 8:00 1800 m 8/8 8/8 - - -
Do, 19.07. 2:00 9000 m 2/8 0/8 - - -
Mi, 18.07. 20:00 - 0/8 0/8 - - -
Mi, 18.07. 14:00 8700 m 8/8 0/8 - - -
Mi, 18.07. 8:00 - 0/8 0/8 - - -
Mi, 18.07. 2:00 - 0/8 0/8 - - -
Di, 17.07. 20:00 1800 m 6/8 5/8 - - -
Di, 17.07. 14:00 - 0/8 0/8 - - -
Ortszeit Bedeckungsgrad in Achtel und Wolkenuntergrenze
Do, 19.07. 13:30 keine Wolken
Do, 19.07. 13:20 keine Wolken
Do, 19.07. 13:10 keine Wolken
Do, 19.07. 13:00 5(2100m)
Do, 19.07. 12:50 5(2100m)
Do, 19.07. 12:40 7(2100m)
Do, 19.07. 12:30 5(2100m)
Do, 19.07. 12:00 keine Wolken
Do, 19.07. 11:30 6(2100m)
Do, 19.07. 11:00 8(2100m)
Do, 19.07. 10:30 8(2100m)
Ortszeit Luftdruck NN (hPa) Tendenz (hPa in 3 Std.)
Do, 19.07. 8:00 1019 + 0,2
Do, 19.07. 2:00 1019 + 0,3
Mi, 18.07. 20:00 1017 - 0,7
Mi, 18.07. 14:00 1019 - 0,5
Mi, 18.07. 8:00 1019 + 0,7
Mi, 18.07. 2:00 1018 + 0,9
Di, 17.07. 20:00 1014 + 0,3
Di, 17.07. 14:00 1014 + 0,1
Ortszeit Luftdruck NN (hPa) Tendenz (hPa in 3 Std.)
Do, 19.07. 13:30 1018 - 0,9
Do, 19.07. 13:20 1018 keine Meldung
Do, 19.07. 13:10 1018 keine Meldung
Do, 19.07. 13:00 1018 - 0,6
Do, 19.07. 12:50 1018 keine Meldung
Do, 19.07. 12:40 1018 keine Meldung
Do, 19.07. 12:30 1018 - 0,3
Do, 19.07. 12:00 1018 - 0,2
Do, 19.07. 11:30 1019 + 0,2
Do, 19.07. 11:00 1019 + 0,3
Do, 19.07. 10:30 1019 + 0,5
Ortszeit Schneehöhe (cm)
Do, 19.07. 8:00 -
Do, 19.07. 2:00 -
Mi, 18.07. 20:00 -
Mi, 18.07. 14:00 -
Mi, 18.07. 8:00 -
Mi, 18.07. 2:00 -
Di, 17.07. 20:00 -
Di, 17.07. 14:00 -
Ortszeit Schneehöhe (cm)
Do, 19.07. 13:30 -
Do, 19.07. 13:20 -
Do, 19.07. 13:10 -
Do, 19.07. 13:00 -
Do, 19.07. 12:50 -
Do, 19.07. 12:40 -
Do, 19.07. 12:30 -
Do, 19.07. 12:00 -
Do, 19.07. 11:30 -
Do, 19.07. 11:00 -
Do, 19.07. 10:30 -
Link zu dieser Seite / Seite empfehlen

Das Wetter in ...